Worland, WY

6:53 AM MST on December 08, 2019 (GMT -0700)
Worland Municipal

Weather History for KWRL - November, 2019

Change the Weather History Date:

Tuesday, November 12, 2019

  Actual Average Record
Temperature  
Mean Temperature 13 °F 33 °F  
Max Temperature 32 °F 47 °F 72 °F (1989)
Min Temperature -7 °F 19 °F -21 °F (2014)
Degree Days  
Heating Degree Days 52 32  
Month to date heating degree days 431 349  
Since 1 July heating degree days 1518 1211  
Cooling Degree Days 0 0  
Month to date cooling degree days 0 0  
Year to date cooling degree days 516 535  
Moisture  
Dew Point 11 °F    
Average Humidity 78    
Maximum Humidity 92    
Minimum Humidity 63    
Precipitation  
Precipitation 0.00 in 0.01 in 0.44 in (1980)
Month to date precipitation 0.21 0.15  
Year to date precipitation 11.13 7.14  
Sea Level Pressure  
Sea Level Pressure 30.27 in    
Wind  
Wind Speed 3 mph (SSW)    
Max Wind Speed 13 mph    
Max Gust Speed 14 mph    
Visibility 10 miles    
Events      
T = Trace of Precipitation, MM = Missing Value Source: NWS Daily Summary

Daily Weather History Graph

Daily Weather History Graph

Search for Another Location

Airport or City:

Astronomy

Nov. 12, 2019 Rise Set
Actual Time 7:02 AM MST 4:48 PM MST
Civil Twilight 6:31 AM MST 5:19 PM MST
Nautical Twilight 5:56 AM MST 5:54 PM MST
Astronomical Twilight 5:22 AM MST 6:28 PM MST
Moon 5:18 PM MST (11/12) 6:55 AM MST (11/12)
Length of Visible Light 10h 48m
Length of Day
9h 46m
Full, 100% of the Moon is Illuminated
Nov 12
Full
Nov 19
Last Quarter
Nov 26
New
Dec 3
First Quarter
Dec 11
Full

Hourly Weather History & Observations

Time (MST) Temp. Windchill Dew Point Humidity Pressure Visibility Wind Dir Wind Speed Gust Speed Precip Events Conditions
12:53 AM -2.9 °F - -6.0 °F 87% 30.55 in 10.0 mi Calm Calm - N/A   Clear
1:53 AM -5.1 °F - -8.0 °F 87% 30.53 in 10.0 mi Calm Calm - N/A   Clear
2:53 AM -5.1 °F - -8.0 °F 87% 30.49 in 10.0 mi Calm Calm - N/A   Clear
3:53 AM -0.0 °F -17.1 °F -4.0 °F 83% 30.45 in 10.0 mi South 11.5 mph - N/A   Clear
4:53 AM -0.9 °F -14.1 °F -5.1 °F 83% 30.47 in 10.0 mi SSW 6.9 mph - N/A   Clear
5:53 AM -0.9 °F -12.7 °F -4.0 °F 87% 30.46 in 10.0 mi South 5.8 mph - N/A   Clear
6:53 AM -2.9 °F -13.3 °F -7.1 °F 82% 30.44 in 10.0 mi SW 4.6 mph - N/A   Clear
7:53 AM 3.0 °F -11.5 °F -0.0 °F 87% 30.42 in 10.0 mi South 9.2 mph - N/A   Clear
8:53 AM 7.0 °F 0.1 °F 3.9 °F 87% 30.40 in 10.0 mi SW 3.5 mph - N/A   Clear
9:53 AM 10.0 °F 1.8 °F 7.0 °F 87% 30.38 in 10.0 mi SW 4.6 mph - N/A   Clear
10:53 AM 15.1 °F - 9.0 °F 77% 30.36 in 10.0 mi Calm Calm - N/A   Clear
11:53 AM 21.0 °F - 15.1 °F 78% 30.30 in 10.0 mi Calm Calm - N/A   Clear
12:53 PM 26.1 °F 21.9 °F 16.0 °F 66% 30.24 in 10.0 mi West 3.5 mph - N/A   Clear
1:53 PM 28.9 °F - 17.1 °F 61% 30.20 in 10.0 mi Calm Calm - N/A   Clear
2:53 PM 30.0 °F - 19.9 °F 66% 30.17 in 10.0 mi Calm Calm - N/A   Clear
3:53 PM 30.9 °F - 19.9 °F 64% 30.13 in 10.0 mi Calm Calm - N/A   Partly Cloudy
4:53 PM 30.0 °F 26.5 °F 21.9 °F 72% 30.11 in 10.0 mi SSE 3.5 mph - N/A   Mostly Cloudy
5:53 PM 28.0 °F 24.2 °F 23.0 °F 81% 30.11 in 10.0 mi South 3.5 mph - N/A   Clear
6:53 PM 28.9 °F 25.2 °F 23.0 °F 78% 30.10 in 10.0 mi South 3.5 mph - N/A   Partly Cloudy
7:53 PM 28.0 °F 20.0 °F 23.0 °F 81% 30.06 in 10.0 mi South 8.1 mph - N/A   Clear
8:53 PM 28.0 °F 24.2 °F 23.0 °F 81% 30.02 in 10.0 mi Variable 3.5 mph - N/A   Scattered Clouds
9:53 PM 28.9 °F - 24.1 °F 82% 30.01 in 10.0 mi Calm Calm - N/A   Mostly Cloudy
10:53 PM 28.9 °F 25.2 °F 26.1 °F 89% 30.03 in 10.0 mi SW 3.5 mph - N/A   Overcast
11:53 PM 28.9 °F 25.2 °F 25.0 °F 85% 30.02 in 10.0 mi SE 3.5 mph - N/A   Overcast